TimeCST,TemperatureF,Dew PointF,Humidity,Sea Level PressureIn,VisibilityMPH,Wind Direction,Wind SpeedMPH,Gust SpeedMPH,PrecipitationIn,Events,Conditions,WindDirDegrees,DateUTC
12:15 AM,-5.8,-7.6,92,30.13,10.0,Calm,Calm,-,N/A,,Clear,0,2013-02-16 06:15:00
12:35 AM,-5.8,-9.4,84,30.13,10.0,Calm,Calm,-,N/A,,Clear,0,2013-02-16 06:35:00
12:55 AM,-7.6,-11.2,84,30.12,2.0,Calm,Calm,-,N/A,Snow,Light Snow,0,2013-02-16 06:55:00
1:15 AM,-7.6,-11.2,84,30.12,1.8,Calm,Calm,-,N/A,Snow,Light Snow,0,2013-02-16 07:15:00
1:35 AM,-7.6,-11.2,84,30.12,10.0,Calm,Calm,-,N/A,,Clear,0,2013-02-16 07:35:00
1:55 AM,-9.4,-13.0,84,30.11,10.0,Calm,Calm,-,N/A,,Clear,0,2013-02-16 07:55:00
2:15 AM,-9.4,-13.0,84,30.11,10.0,Calm,Calm,-,N/A,,Clear,0,2013-02-16 08:15:00
2:35 AM,-9.4,-14.8,77,30.11,10.0,Calm,Calm,-,N/A,,Clear,0,2013-02-16 08:35:00
2:55 AM,-11.2,-14.8,84,30.10,1.2,Calm,Calm,-,N/A,,Clear,0,2013-02-16 08:55:00
3:15 AM,-11.2,-14.8,84,30.10,4.0,Calm,Calm,-,N/A,,Clear,0,2013-02-16 09:15:00
3:35 AM,-13.0,-16.6,84,30.10,1.8,Calm,Calm,-,N/A,Snow,Light Snow,0,2013-02-16 09:35:00
3:55 AM,-13.0,-16.6,84,30.10,3.0,Calm,Calm,-,N/A,Snow,Light Snow,0,2013-02-16 09:55:00
4:15 AM,-13.0,-16.6,84,30.10,10.0,Calm,Calm,-,N/A,,Scattered Clouds,0,2013-02-16 10:15:00
4:35 AM,-14.8,-18.4,84,30.09,2.0,North,-9999.0,-,N/A,Snow,Light Snow,0,2013-02-16 10:35:00
4:55 AM,-14.8,-18.4,84,30.09,10.0,Calm,Calm,-,N/A,,Clear,0,2013-02-16 10:55:00
5:15 AM,-16.6,-20.2,84,30.10,10.0,Calm,Calm,-,N/A,,Clear,0,2013-02-16 11:15:00
5:35 AM,-14.8,-20.2,77,30.09,7.0,Calm,Calm,-,N/A,,Clear,0,2013-02-16 11:35:00
5:55 AM,-14.8,-20.2,77,30.10,10.0,Calm,Calm,-,N/A,,Clear,0,2013-02-16 11:55:00
6:15 AM,-16.6,-20.2,84,30.10,10.0,Calm,Calm,-,N/A,,Clear,0,2013-02-16 12:15:00
6:35 AM,-16.6,-20.2,84,30.09,2.0,Calm,Calm,-,N/A,Snow,Light Snow,0,2013-02-16 12:35:00
6:55 AM,-16.6,-20.2,84,30.10,3.0,Calm,Calm,-,N/A,,Scattered Clouds,0,2013-02-16 12:55:00
7:15 AM,-16.6,-20.2,84,30.10,10.0,Calm,Calm,-,N/A,,Scattered Clouds,0,2013-02-16 13:15:00
7:35 AM,-16.6,-20.2,84,30.10,7.0,Calm,Calm,-,N/A,,Clear,0,2013-02-16 13:35:00
7:55 AM,-16.6,-20.2,84,30.11,5.0,Calm,Calm,-,N/A,,Clear,0,2013-02-16 13:55:00
8:15 AM,-14.8,-18.4,84,30.11,5.0,Calm,Calm,-,N/A,,Clear,0,2013-02-16 14:15:00
8:35 AM,-11.2,-14.8,84,30.11,10.0,Calm,Calm,-,N/A,,Clear,0,2013-02-16 14:35:00
8:55 AM,-7.6,-11.2,84,30.11,10.0,Calm,Calm,-,N/A,,Clear,0,2013-02-16 14:55:00
9:15 AM,-2.2,-7.6,78,30.11,5.0,Calm,Calm,-,N/A,,Clear,0,2013-02-16 15:15:00
9:35 AM,1.4,-2.2,85,30.11,10.0,Calm,Calm,-,N/A,,Clear,0,2013-02-16 15:35:00
12:15 PM,12.2,-0.4,57,30.10,10.0,NE,4.6,-,N/A,,Overcast,40,2013-02-16 18:15:00
12:35 PM,12.2,-2.2,53,30.09,10.0,Calm,Calm,-,N/A,,Mostly Cloudy,0,2013-02-16 18:35:00
12:55 PM,14.0,-2.2,49,30.08,10.0,North,4.6,-,N/A,,Overcast,360,2013-02-16 18:55:00
1:15 PM,15.8,-4.0,41,30.08,10.0,Calm,Calm,-,N/A,,Mostly Cloudy,0,2013-02-16 19:15:00
1:35 PM,15.8,-4.0,41,30.08,10.0,Calm,Calm,-,N/A,,Overcast,0,2013-02-16 19:35:00
1:55 PM,14.0,-2.2,49,30.08,10.0,Calm,Calm,-,N/A,,Scattered Clouds,0,2013-02-16 19:55:00
2:15 PM,14.0,-2.2,49,30.08,10.0,NW,3.5,-,N/A,,Scattered Clouds,310,2013-02-16 20:15:00
2:35 PM,15.8,-4.0,41,30.08,10.0,Calm,Calm,-,N/A,,Mostly Cloudy,0,2013-02-16 20:35:00
2:55 PM,15.8,-4.0,41,30.08,10.0,Calm,Calm,-,N/A,,Scattered Clouds,0,2013-02-16 20:55:00
3:15 PM,15.8,-4.0,41,30.08,10.0,Calm,Calm,-,N/A,,Mostly Cloudy,0,2013-02-16 21:15:00
3:35 PM,15.8,-4.0,41,30.08,10.0,NNE,3.5,-,N/A,,Scattered Clouds,30,2013-02-16 21:35:00
3:55 PM,15.8,-5.8,38,30.08,10.0,Calm,Calm,-,N/A,,Scattered Clouds,0,2013-02-16 21:55:00
4:15 PM,15.8,-4.0,41,30.08,10.0,Calm,Calm,-,N/A,,Scattered Clouds,0,2013-02-16 22:15:00
4:35 PM,15.8,-5.8,38,30.08,10.0,Calm,Calm,-,N/A,,Scattered Clouds,0,2013-02-16 22:35:00
4:55 PM,15.8,-5.8,38,30.09,10.0,Calm,Calm,-,N/A,,Clear,0,2013-02-16 22:55:00
5:15 PM,15.8,-4.0,41,30.09,10.0,Calm,Calm,-,N/A,,Clear,0,2013-02-16 23:15:00
5:35 PM,12.2,-2.2,53,30.10,10.0,Calm,Calm,-,N/A,,Clear,0,2013-02-16 23:35:00
5:55 PM,8.6,-2.2,62,30.10,10.0,Calm,Calm,-,N/A,,Clear,0,2013-02-16 23:55:00
6:15 PM,6.8,-0.4,72,30.10,10.0,Calm,Calm,-,N/A,,Clear,0,2013-02-17 00:15:00
6:35 PM,6.8,-2.2,67,30.10,10.0,Calm,Calm,-,N/A,,Clear,0,2013-02-17 00:35:00
6:55 PM,1.4,-4.0,78,30.10,10.0,Calm,Calm,-,N/A,,Clear,0,2013-02-17 00:55:00
7:15 PM,3.2,-2.2,78,30.11,10.0,Calm,Calm,-,N/A,,Clear,0,2013-02-17 01:15:00
7:35 PM,-0.4,-4.0,85,30.10,10.0,Calm,Calm,-,N/A,,Clear,0,2013-02-17 01:35:00
7:55 PM,-0.4,-5.8,78,30.11,10.0,Calm,Calm,-,N/A,,Clear,0,2013-02-17 01:55:00
8:15 PM,-2.2,-5.8,85,30.10,10.0,Calm,Calm,-,N/A,,Clear,0,2013-02-17 02:15:00
8:35 PM,-2.2,-7.6,78,30.11,10.0,Calm,Calm,-,N/A,,Clear,0,2013-02-17 02:35:00
8:55 PM,-5.8,-9.4,84,30.11,10.0,Calm,Calm,-,N/A,,Clear,0,2013-02-17 02:55:00
9:15 PM,-5.8,-7.6,92,30.11,10.0,Calm,Calm,-,N/A,,Clear,0,2013-02-17 03:15:00
9:35 PM,-5.8,-9.4,84,30.11,10.0,Calm,Calm,-,N/A,,Clear,0,2013-02-17 03:35:00
9:55 PM,-5.8,-9.4,84,30.11,10.0,Calm,Calm,-,N/A,,Clear,0,2013-02-17 03:55:00
10:15 PM,-7.6,-9.4,92,30.10,10.0,Calm,Calm,-,N/A,,Clear,0,2013-02-17 04:15:00
10:35 PM,-9.4,-14.8,77,30.10,10.0,Calm,Calm,-,N/A,,Clear,0,2013-02-17 04:35:00
10:55 PM,-9.4,-11.2,92,30.10,10.0,Calm,Calm,-,N/A,,Clear,0,2013-02-17 04:55:00
11:15 PM,-9.4,-14.8,77,30.10,10.0,Calm,Calm,-,N/A,,Clear,0,2013-02-17 05:15:00
11:35 PM,-9.4,-14.8,77,30.09,10.0,Calm,Calm,-,N/A,,Clear,0,2013-02-17 05:35:00
11:55 PM,-11.2,-14.8,84,30.09,10.0,Calm,Calm,-,N/A,,Clear,0,2013-02-17 05:55:00